Location: Chevoux
(46.3801°N, 4.9476°E)
Time: 01:44:01
(UTC+00:00)

S-56A Canister/Altair - Visible Passes

Search period start: 12 May 2021 00:00
Search period end: 22 May 2021 00:00
Orbit: 632 x 2501 km, 38.9° (Epoch: 11 May)

Date Brightness Start Highest point End Pass type
(mag) Time Alt. Az. Time Alt. Az. Time Alt. Az.
12 May 9.9 19:37:10 10° W 19:50:52 54° SSW 20:00:47 10° SE visible
12 May 10.0 21:44:54 10° W 21:54:34 27° SW 21:58:11 22° SSW visible
13 May 10.1 21:10:55 10° W 21:21:44 31° SW 21:27:05 20° S visible
14 May 10.2 20:36:59 10° W 20:48:49 35° SW 20:56:01 16° SSE visible
15 May 10.3 20:03:07 10° W 20:15:47 40° SW 20:24:57 12° SSE visible
15 May 10.7 22:13:32 10° W 22:18:28 13° SW 22:22:22 11° SSW visible
16 May 10.3 19:29:19 10° W 19:42:40 44° SSW 19:53:03 10° SE visible
16 May 10.7 21:38:35 10° W 21:45:45 17° SW 21:51:20 11° SSW visible
17 May 10.7 21:04:06 10° W 21:12:57 21° SW 21:20:19 10° S visible
18 May 10.8 20:29:51 10° W 20:40:04 24° SW 20:48:29 10° S visible
19 May 10.8 19:55:48 10° W 20:07:05 28° SW 20:16:27 10° S visible
21 May 11.3 21:00:44 10° WSW 21:03:45 11° WSW 21:06:38 10° SW visible
